Detroit Lakes, MN

10:52 PM CDT on March 27, 2017 (GMT -0500)
Detroit Lakes

Weather History for KDTL - June, 2012

Change the Weather History Date:

Tuesday, June 26, 2012

  Actual Average Record
Temperature  
Mean Temperature 69 °F -  
Max Temperature 78 °F 78 °F 97 °F (1933)
Min Temperature 60 °F 55 °F 40 °F (1981)
Cooling Degree Days 4    
Growing Degree Days 19 (Base 50)    
Moisture  
Dew Point 55 °F    
Average Humidity 60    
Maximum Humidity 77    
Minimum Humidity 50    
Precipitation  
Precipitation 0.00 in - - ()
Sea Level Pressure  
Sea Level Pressure 29.83 in    
Wind  
Wind Speed 13 mph (SSE)    
Max Wind Speed 21 mph    
Max Gust Speed 30 mph    
Visibility 10 miles    
Events      
Averages and records for this station are not official NWS values.
T = Trace of Precipitation, MM = Missing Value Source: NWS Daily Summary

Daily Weather History Graph

Daily Weather History Graph

Search for Another Location

Airport or City:

Trip Planner

Search our weather history database for the weather conditions in past years. The results will help you decide how hot, cold, wet, or windy it might be!

Date:

Astronomy

Jun. 26, 2012 Rise Set
Actual Time 5:30 AM CDT 9:21 PM CDT
Civil Twilight 4:51 AM CDT 10:01 PM CDT
Nautical Twilight 3:57 AM CDT 10:55 PM CDT
Astronomical Twilight 2:37 AM CDT 12:14 AM CDT
Moon 1:18 PM CDT (6/26) 12:23 AM CDT (6/26)
Length of Visible Light 17h 10m
Length of Day
15h 51m
Waxing Crescent, 45% of the Moon is Illuminated
Jun 26
Waxing Crescent
Jun 26
First Quarter
Jul 3
Full
Jul 10
Last Quarter
Jul 18
New

Hourly Weather History & Observations

Time (CDT) Temp. Dew Point Humidity Pressure Visibility Wind Dir Wind Speed Gust Speed Precip Events Conditions
12:12 AM 66.2 °F 53.6 °F 64% 30.00 in 10.0 mi SSE 11.5 mph - N/A   Clear
12:33 AM 66.2 °F 51.8 °F 60% 29.99 in 10.0 mi South 10.4 mph - N/A   Clear
12:53 AM 64.4 °F 51.8 °F 64% 29.99 in 10.0 mi SSE 9.2 mph - N/A   Clear
1:12 AM 64.4 °F 51.8 °F 64% 30.00 in 10.0 mi South 10.4 mph - N/A   Clear
1:33 AM 64.4 °F 51.8 °F 64% 29.99 in 10.0 mi SSE 9.2 mph - N/A   Clear
1:52 AM 62.6 °F 51.8 °F 68% 30.00 in 10.0 mi SSE 8.1 mph - N/A   Clear
2:13 AM 62.6 °F 51.8 °F 68% 30.01 in 10.0 mi SSE 8.1 mph - N/A   Clear
2:33 AM 62.6 °F 51.8 °F 68% 29.99 in 10.0 mi SE 6.9 mph - N/A   Clear
2:52 AM 62.6 °F 53.6 °F 72% 29.99 in 10.0 mi SE 6.9 mph - N/A   Clear
3:13 AM 62.6 °F 53.6 °F 72% 29.97 in 10.0 mi SSE 6.9 mph - N/A   Clear
3:33 AM 62.6 °F 53.6 °F 72% 29.95 in 10.0 mi SSE 9.2 mph - N/A   Clear
3:52 AM 60.8 °F 53.6 °F 77% 29.95 in 10.0 mi SSE 9.2 mph - N/A   Clear
4:13 AM 60.8 °F 53.6 °F 77% 29.94 in 10.0 mi SSE 10.4 mph - N/A   Clear
4:33 AM 60.8 °F 53.6 °F 77% 29.91 in 10.0 mi SE 16.1 mph 20.7 mph N/A   Clear
4:52 AM 60.8 °F 53.6 °F 77% 29.91 in 10.0 mi SSE 15.0 mph - N/A   Clear
5:13 AM 60.8 °F 53.6 °F 77% 29.90 in 10.0 mi SSE 15.0 mph 21.9 mph N/A   Clear
5:33 AM 60.8 °F 53.6 °F 77% 29.90 in 10.0 mi SSE 12.7 mph 20.7 mph N/A   Clear
5:52 AM 60.8 °F 51.8 °F 72% 29.89 in 10.0 mi SSE 12.7 mph - N/A   Clear
6:13 AM 60.8 °F 51.8 °F 72% 29.90 in 10.0 mi SSE 16.1 mph - N/A   Clear
6:32 AM 62.6 °F 53.6 °F 72% 29.90 in 10.0 mi SSE 12.7 mph - N/A   Clear
6:53 AM 62.6 °F 53.6 °F 72% 29.89 in 10.0 mi SSE 13.8 mph - N/A   Clear
7:12 AM 62.6 °F 53.6 °F 72% 29.90 in 10.0 mi South 11.5 mph - N/A   Clear
7:31 AM 64.4 °F 53.6 °F 68% 29.91 in 10.0 mi South 11.5 mph - N/A   Clear
7:53 AM 66.2 °F 53.6 °F 64% 29.91 in 10.0 mi SSE 11.5 mph - N/A   Clear
8:13 AM 68.0 °F 53.6 °F 60% 29.90 in 10.0 mi South 16.1 mph 20.7 mph N/A   Clear
8:32 AM 68.0 °F 51.8 °F 56% 29.89 in 10.0 mi South 15.0 mph 24.2 mph N/A   Clear
8:53 AM 68.0 °F 51.8 °F 56% 29.89 in 10.0 mi South 15.0 mph 24.2 mph N/A   Clear
9:13 AM 69.8 °F 51.8 °F 53% 29.88 in 10.0 mi SSE 13.8 mph 24.2 mph N/A   Clear
9:32 AM 69.8 °F 51.8 °F 53% 29.87 in 10.0 mi SSE 13.8 mph - N/A   Clear
9:53 AM 71.6 °F 53.6 °F 53% 29.87 in 10.0 mi SSE 15.0 mph 21.9 mph N/A   Clear
10:13 AM 71.6 °F 53.6 °F 53% 29.87 in 10.0 mi South 16.1 mph 24.2 mph N/A   Clear
10:32 AM 73.4 °F 55.4 °F 53% 29.88 in 10.0 mi South 12.7 mph 18.4 mph N/A   Clear
10:53 AM 71.6 °F 53.6 °F 53% 29.86 in 10.0 mi SSE 15.0 mph - N/A   Clear
11:13 AM 71.6 °F 55.4 °F 57% 29.86 in 10.0 mi SSE 12.7 mph 19.6 mph N/A   Clear
11:32 AM 71.6 °F 55.4 °F 57% 29.86 in 10.0 mi SSE 15.0 mph - N/A   Clear
11:53 AM 71.6 °F 55.4 °F 57% 29.87 in 10.0 mi South 15.0 mph 20.7 mph N/A   Mostly Cloudy
12:13 PM 71.6 °F 57.2 °F 60% 29.86 in 10.0 mi SE 15.0 mph - N/A   Mostly Cloudy
12:32 PM 71.6 °F 57.2 °F 60% 29.84 in 10.0 mi SSE 17.3 mph - N/A   Mostly Cloudy
12:53 PM 73.4 °F 59.0 °F 61% 29.83 in 10.0 mi SSE 17.3 mph 24.2 mph N/A   Scattered Clouds
1:13 PM 73.4 °F 59.0 °F 61% 29.83 in 10.0 mi SSE 15.0 mph - N/A   Clear
1:32 PM 75.2 °F 59.0 °F 57% 29.81 in 10.0 mi SSE 15.0 mph 20.7 mph N/A   Clear
1:53 PM 75.2 °F 59.0 °F 57% 29.81 in 10.0 mi SE 16.1 mph - N/A   Clear
2:13 PM 77.0 °F 59.0 °F 54% 29.80 in 10.0 mi SSE 19.6 mph - N/A   Clear
2:32 PM 75.2 °F 59.0 °F 57% 29.79 in 10.0 mi SSE 16.1 mph 24.2 mph N/A   Clear
2:53 PM 77.0 °F 59.0 °F 54% 29.78 in 10.0 mi SE 18.4 mph 23.0 mph N/A   Clear
3:13 PM 77.0 °F 60.8 °F 57% 29.77 in 10.0 mi SSE 19.6 mph 23.0 mph N/A   Clear
3:32 PM 77.0 °F 59.0 °F 54% 29.75 in 10.0 mi SSE 17.3 mph 26.5 mph N/A   Clear
3:53 PM 77.0 °F 60.8 °F 57% 29.74 in 10.0 mi SE 18.4 mph 27.6 mph N/A   Clear
4:13 PM 77.0 °F 60.8 °F 57% 29.74 in 10.0 mi SE 15.0 mph 21.9 mph N/A   Clear
4:33 PM 78.8 °F 60.8 °F 54% 29.74 in 10.0 mi SSE 20.7 mph 29.9 mph N/A   Clear
4:53 PM 78.8 °F 60.8 °F 54% 29.73 in 10.0 mi SSE 17.3 mph 28.8 mph N/A   Clear
5:12 PM 78.8 °F 60.8 °F 54% 29.74 in 10.0 mi SSE 19.6 mph 25.3 mph N/A   Clear
5:33 PM 77.0 °F 59.0 °F 54% 29.74 in 10.0 mi SSE 17.3 mph 24.2 mph N/A   Clear
5:53 PM 77.0 °F 59.0 °F 54% 29.73 in 10.0 mi SSE 15.0 mph - N/A   Clear
6:12 PM 77.0 °F 59.0 °F 54% 29.72 in 10.0 mi SSE 16.1 mph 26.5 mph N/A   Clear
6:33 PM 77.0 °F 59.0 °F 54% 29.71 in 10.0 mi South 17.3 mph 24.2 mph N/A   Clear
6:53 PM 77.0 °F 57.2 °F 50% 29.71 in 10.0 mi SSE 16.1 mph 24.2 mph N/A   Clear
7:12 PM 77.0 °F 57.2 °F 50% 29.71 in 10.0 mi SSE 16.1 mph 23.0 mph N/A   Clear
7:33 PM 75.2 °F 57.2 °F 53% 29.70 in 10.0 mi SSE 12.7 mph 21.9 mph N/A   Clear
7:53 PM 73.4 °F 55.4 °F 53% 29.70 in 10.0 mi SE 16.1 mph 21.9 mph N/A   Clear
8:12 PM 73.4 °F 57.2 °F 57% 29.70 in 10.0 mi SE 17.3 mph 21.9 mph N/A   Clear
8:33 PM 73.4 °F 55.4 °F 53% 29.70 in 10.0 mi SSE 11.5 mph 20.7 mph N/A   Clear
8:53 PM 71.6 °F 55.4 °F 57% 29.69 in 10.0 mi SE 11.5 mph 20.7 mph N/A   Clear
9:12 PM 71.6 °F 55.4 °F 57% 29.69 in 10.0 mi SSE 13.8 mph 18.4 mph N/A   Clear
9:33 PM 71.6 °F 53.6 °F 53% 29.68 in 10.0 mi SSE 13.8 mph - N/A   Clear
9:53 PM 71.6 °F 53.6 °F 53% 29.68 in 10.0 mi SE 16.1 mph 20.7 mph N/A   Clear
10:12 PM 69.8 °F 53.6 °F 56% 29.67 in 10.0 mi SSE 18.4 mph 25.3 mph N/A   Clear
10:33 PM 69.8 °F 53.6 °F 56% 29.68 in 10.0 mi SE 13.8 mph 21.9 mph N/A   Clear
10:52 PM 69.8 °F 53.6 °F 56% 29.67 in 10.0 mi SE 13.8 mph 18.4 mph N/A   Clear
11:33 PM 69.8 °F 53.6 °F 56% 29.68 in 10.0 mi SSE 12.7 mph 18.4 mph N/A   Clear
11:52 PM 69.8 °F 53.6 °F 56% 29.67 in 10.0 mi SE 12.7 mph 17.3 mph N/A   Clear